ARIANE 5 R/B, 29165

Orbit data source: Space-Track

ARIANE 5 R/B, 29165 is space debris in HEO originally from a launch on Sat, 27 May 2006 UTC launched from the French Guiana (FRGUI). Debris objects in space refer to the collection of defunct objects orbiting the Earth. Examples of debris include non-operational satellites, rocket bodies, and fragments generated from explosions, collisions, or faulty payload assembly.

Loading next visibility...
Identifier
29165, 2006-020D
Orbit
HEO
Country
Flag of FRFR
Related business
Manufacturer
EADS/LV
Mission
Spacecraft
Bus & Motor
ESC-A, Unknown motor
Mass
~5,000 kg wet, ~5,000 kg dry
Launch date (UTC)
2006-05-27 (20 years ago)
Launch vehicle
Unknown
Launch site
French Guiana (FRGUI)
Object type
Payload
Rocket body
Debris
Shape & HBR
Cyl + 1 Nozzle, 4.4 m
Radar Cross Section
41.627 m², Large (>1 m²)

Expand to show TLE details & history
Last TLE update: 15 hours ago

TLE from 15 hours ago
0 ARIANE 5 R/B
1 29165U 06020D   26264.71060800  .00000012  00000-0 -23269-4 0  9993
2 29165   6.8331  40.4455 5520800  21.6045 354.6757  4.56578494249730
Epoch: 2026-09-21T17:03Z
TLE epoch observation values (Epoch: 2026-09-21T17:03:16.531Z)
Latitude
0.00004°
Longitude
144.05044°
Altitude
676.077 km
Speed
9.329 km/s
True Right ascension
02h 41m 49s
True Declination
0° 00' 00"
Sunlit
Object was in full shadow at epoch
Visualization orbit readout
Latitude
Unknown
Longitude
Unknown
Altitude
Unknown
Speed
Unknown
Apparent Right ascension
Unknown
Apparent Declination
Unknown
Sunlit
N/A
Visualization observer readout
Local Sidereal Time
01:13:22
Azimuth
Unknown
Elevation
Unknown
Doppler factor
Unknown
Orbital elements
Apogee altitude
17,451.075 km
Perigee altitude
498.816 km
Semi-major axis
15,353.083 km
Eccentricity
0.55208
Inclination
6.8331°
RAAN
40.4455°
Arg. of periapsis
21.6045°
True anomaly
338.25073°
Mean anomaly
354.6757°
Eccentric anomaly
348.21547°
Mean motion
1.14091 °/min
Orbital period
315.54 mins
BSTAR
-0.000023269
Loading maneuver chart data...
Computing Atmospheric mass density...
Loading historical data...
Loading historical data...
Loading historical data...
Loading historical data...
Loading historical data...
Loading historical data...
Loading historical data...
Other satellites on launch #20 in the year 2006 (2006-05-27 UTC)

Documentation

Showing up to 5 results
|